Wind_Speed
23 21 21 22 22 22 22 22 22 23 24 24 24 25 24 24 25 24 24 23 23 22 21 20 19 19 18 17 17 17 18 19 20 21 21 20 19 18 18 17 16 17 19 21 21 21 21 22 22 22 22 22 21 22 23 21 17 17 21 25 27 27
20 19 20 21 22 22 23 23 23 23 24 24 24 24 25 25 25 24 23 23 23 22 21 20 19 19 18 18 18 19 19 19 20 21 21 20 19 18 17 16 15 16 18 21 22 22 22 22 23 23 23 23 22 22 23 22 19 18 20 24 27 27
19 19 20 20 22 23 24 24 24 24 23 23 24 25 25 26 26 24 23 22 22 22 21 19 18 18 17 17 18 19 20 19 20 20 20 20 20 19 17 15 14 15 18 20 21 22 22 23 23 24 24 24 23 23 23 24 22 19 19 23 27 28
19 19 19 19 21 23 24 24 24 23 22 23 25 25 26 26 26 25 24 23 22 22 20 18 18 18 17 17 18 19 19 19 19 20 21 20 20 19 17 16 15 16 18 20 21 22 22 23 24 24 24 24 24 24 24 25 23 19 19 22 26 29
19 18 18 20 21 22 23 23 23 22 22 23 24 25 26 26 26 25 25 23 22 21 18 17 16 16 15 16 18 19 18 18 19 20 20 20 20 19 18 17 16 16 18 19 21 21 20 21 23 24 24 24 24 25 25 24 23 22 21 21 24 28
17 17 18 19 20 21 22 23 23 22 22 23 24 25 25 26 25 25 24 23 22 20 17 15 14 13 13 15 17 18 17 17 18 18 19 19 19 19 19 19 17 16 17 19 19 20 19 19 22 23 23 23 24 25 26 24 23 25 24 22 22 26
16 17 18 18 18 20 21 22 22 22 23 24 24 25 25 25 24 23 23 23 22 19 17 15 14 14 14 14 15 15 15 16 16 17 18 18 18 19 19 19 19 18 18 18 18 19 19 19 21 22 22 22 24 25 26 23 22 25 27 25 23 24
15 16 17 17 17 19 20 21 21 22 23 24 24 24 24 24 23 22 22 22 20 18 17 15 14 14 14 14 14 14 15 15 16 17 17 17 17 18 18 17 17 18 19 19 19 19 19 20 21 22 22 22 24 25 25 24 22 24 27 29 27 24
15 16 16 17 17 18 19 20 21 21 22 23 23 23 23 22 21 20 19 19 19 17 16 14 13 14 14 14 14 13 14 14 15 16 16 16 16 17 18 17 17 18 19 20 20 20 20 20 21 23 23 22 23 25 25 25 23 22 24 29 30 27
15 16 17 17 18 18 19 19 20 20 21 21 21 21 20 20 20 19 17 17 17 16 14 14 14 15 15 15 15 14 14 14 14 15 16 16 16 17 18 18 19 19 18 19 20 21 22 22 23 24 24 23 24 25 26 26 24 22 22 26 31 31
16 17 18 18 18 19 19 19 19 19 18 18 18 19 18 18 18 17 16 16 16 14 13 13 14 15 16 16 16 15 15 15 14 14 15 16 17 18 19 19 20 20 19 18 18 20 23 24 24 25 25 24 24 25 26 26 26 23 22 24 30 33
17 18 19 19 19 20 20 19 18 18 17 16 16 17 17 16 16 15 15 15 14 14 14 15 15 17 18 17 17 16 15 14 13 13 15 16 17 17 18 19 20 21 20 18 17 18 19 22 24 25 25 25 24 25 25 26 26 24 24 24 27 33
18 18 19 20 20 20 20 19 18 18 17 16 16 16 16 16 15 14 13 13 13 14 15 17 17 18 18 16 15 14 13 13 12 14 15 16 16 16 16 18 19 20 19 18 17 16 16 19 22 23 24 25 25 26 25 25 26 24 25 25 25 31
18 18 19 19 20 20 20 19 18 17 17 16 15 16 16 16 15 13 12 12 12 13 16 18 18 18 17 14 12 11 11 11 12 13 14 14 15 15 15 17 18 18 18 18 17 17 16 17 19 21 23 23 24 26 25 24 24 24 25 26 25 28
17 18 19 19 19 19 19 19 18 17 17 16 15 16 15 15 15 14 13 13 13 13 16 18 17 17 16 12 10 10 11 10 10 11 12 13 13 12 13 16 18 18 20 20 18 16 16 17 19 20 21 21 22 23 23 22 22 23 24 26 26 27
18 18 19 19 19 19 19 18 17 17 17 17 16 16 16 15 15 15 15 15 15 15 16 17 17 16 14 13 11 10 11 10 9 10 11 11 12 12 12 14 17 19 21 21 19 17 17 18 19 19 19 20 21 22 22 21 22 24 24 25 26 27
18 18 19 19 19 18 18 18 18 18 18 18 17 17 17 16 15 15 15 16 16 16 16 15 16 16 15 14 13 12 11 11 10 11 11 11 12 13 13 15 16 18 20 20 19 17 17 17 19 19 19 19 20 21 21 21 23 24 24 24 24 26
17 17 17 17 17 17 17 18 18 18 18 17 17 18 17 17 16 15 15 16 16 17 16 15 15 16 16 16 15 14 14 13 12 12 13 13 13 14 15 16 15 16 18 18 18 18 17 17 18 18 18 18 18 20 21 22 23 24 24 23 23 24
16 16 16 16 16 16 17 18 19 20 19 18 17 18 18 17 17 16 16 16 16 17 17 17 17 17 17 17 16 16 16 15 14 14 14 15 15 16 16 17 17 17 18 18 17 18 17 16 17 17 18 18 17 18 20 21 22 24 24 23 24 24
15 14 15 15 15 15 15 16 18 19 20 19 18 18 18 18 18 17 17 16 16 16 17 18 18 18 19 18 18 18 18 18 17 16 16 16 17 17 17 17 17 19 19 18 18 17 17 17 17 17 18 18 17 16 17 19 21 23 24 24 24 24
14 14 14 14 14 14 14 15 17 19 20 20 20 19 19 19 18 18 18 17 17 17 17 18 18 19 19 19 19 20 20 20 19 18 17 17 18 18 18 18 18 19 20 20 18 17 18 18 18 18 17 18 18 16 16 17 18 20 23 24 26 26
14 14 14 14 14 14 14 14 15 18 19 19 20 20 20 19 19 18 18 18 18 18 18 18 19 19 20 20 20 20 20 20 20 19 18 18 18 18 19 19 19 20 20 20 19 18 19 18 19 18 17 18 18 18 17 17 17 17 18 20 23 27
14 15 15 15 14 13 13 14 14 16 17 18 19 20 20 20 19 19 18 18 19 19 19 19 20 20 20 20 20 20 20 20 20 20 19 19 19 19 19 20 20 20 21 21 20 20 19 19 19 19 18 18 19 19 19 19 20 20 19 17 18 21
15 15 16 16 14 14 13 13 14 16 17 17 17 18 19 19 19 19 18 19 19 19 20 20 20 20 20 20 21 21 21 21 20 20 20 19 19 19 19 20 20 21 22 22 22 21 20 19 19 19 19 19 19 19 19 19 20 21 20 19 17 17
17 17 17 17 15 14 13 14 14 16 18 18 17 17 18 18 19 19 19 19 19 19 20 20 20 20 19 19 20 21 21 21 20 20 20 19 19 19 19 20 20 21 22 22 22 22 20 20 19 19 19 19 19 19 18 18 20 21 21 20 19 18
19 19 19 18 16 14 13 13 14 16 17 18 17 17 17 17 18 18 19 19 19 20 20 20 20 19 19 18 19 20 20 20 20 20 20 20 19 19 20 20 20 21 22 22 22 22 21 21 21 20 20 20 20 19 19 19 20 21 21 21 20 19
21 20 20 20 18 16 14 13 14 15 16 17 18 18 18 17 17 18 19 19 19 20 20 20 19 19 18 18 18 19 19 19 19 19 20 20 19 19 20 20 21 21 22 22 22 22 21 21 21 21 20 21 21 20 19 20 21 21 20 19 19 20
21 21 21 21 19 17 15 14 14 15 16 17 17 18 18 18 18 18 19 19 19 19 20 19 19 19 18 18 18 18 18 19 19 19 19 19 19 19 20 20 20 21 21 21 21 21 21 21 22 21 20 20 21 21 20 20 21 21 20 19 19 19
22 22 22 21 21 20 17 15 15 15 16 17 18 18 19 19 19 20 19 19 19 19 19 19 18 18 18 18 18 18 18 18 18 18 18 18 18 18 19 20 20 20 20 20 21 21 21 21 21 21 20 20 21 21 20 21 22 23 23 23 21 19
25 25 24 23 23 22 21 18 16 15 16 18 19 19 19 20 20 20 20 19 19 18 18 18 18 17 17 17 17 17 18 18 17 17 17 17 17 17 18 19 19 19 18 19 19 20 20 20 21 21 20 20 20 20 20 21 23 24 25 25 25 23
30 27 26 25 25 25 24 21 18 16 17 19 20 20 20 20 20 20 20 19 19 18 18 17 17 17 16 16 15 16 16 16 16 16 16 16 17 17 17 17 17 17 17 17 17 18 18 18 19 19 19 19 20 20 20 21 22 24 25 26 25 24
30 26 26 27 26 26 26 24 20 17 17 20 21 21 21 20 20 20 20 19 18 18 18 17 17 17 16 16 15 15 15 16 16 16 16 16 16 16 16 16 16 16 16 16 16 16 16 17 17 17 18 18 19 20 20 20 22 23 24 24 24 23
27 23 26 27 26 27 27 26 24 20 19 20 21 21 21 20 20 20 20 19 17 17 17 17 17 17 17 16 16 15 15 15 16 16 16 15 15 15 16 16 16 16 15 15 15 15 15 15 15 15 16 16 17 18 19 19 20 22 23 23 23 23
31 25 25 27 26 27 29 29 27 24 22 22 22 21 21 20 19 19 19 18 17 16 17 17 17 17 16 16 16 16 15 15 15 15 15 16 15 15 15 15 16 16 15 15 15 15 15 15 15 14 15 15 15 16 17 18 19 20 21 21 22 21
34 27 23 27 29 29 30 30 29 27 25 24 23 21 21 19 18 18 18 17 16 17 17 17 17 17 17 16 16 16 16 16 15 15 15 15 15 16 16 15 15 15 15 14 14 14 14 15 15 15 14 14 14 15 15 16 17 17 19 19 20 20
32 30 29 31 32 31 31 31 31 29 26 26 24 21 20 19 17 16 16 15 15 16 17 17 17 17 17 17 17 17 17 17 16 16 16 16 16 16 16 16 16 16 15 15 14 14 14 14 14 14 15 14 14 14 15 15 16 16 16 17 17 18
32 31 28 27 29 31 31 31 32 30 27 26 25 22 20 19 17 16 15 15 15 16 17 17 16 17 17 17 17 17 17 17 17 17 16 16 16 16 16 16 16 16 16 16 15 15 14 14 14 14 14 14 14 14 14 15 15 15 15 15 15 16
Wind_Direction
274 277 279 281 280 283 285 286 285 284 282 282 283 283 284 284 283 282 282 281 279 279 276 273 270 269 268 266 264 261 259 259 258 258 258 259 258 257 255 253 247 241 237 235 236 235 234 233 232 232 233 236 236 236 235 229 219 210 209 211 214 218
275 277 281 281 282 284 284 283 282 282 283 284 282 281 283 283 282 281 282 281 280 280 278 275 272 268 265 264 263 259 257 257 258 259 259 260 259 258 255 253 249 241 235 231 232 234 234 234 233 232 231 234 235 234 234 231 223 214 210 212 214 217
275 279 282 281 283 284 283 282 281 283 285 283 280 279 280 281 281 280 279 280 280 280 279 276 273 269 264 262 262 258 256 255 256 258 259 259 258 255 252 251 248 240 233 229 229 232 234 234 234 233 232 232 234 234 232 231 227 219 213 213 214 216
277 281 282 282 283 283 283 282 282 284 284 281 278 277 278 278 279 278 277 277 277 279 280 276 271 270 265 259 257 256 255 255 255 256 257 258 257 254 252 248 244 238 232 230 229 231 235 235 234 235 235 233 233 235 233 231 229 225 220 218 217 216
278 282 284 285 284 283 283 283 284 286 282 279 279 277 277 277 277 277 276 276 277 278 279 275 270 270 264 253 250 251 252 253 254 256 257 258 257 253 251 247 243 238 233 232 231 233 237 236 234 235 237 237 235 236 237 233 229 225 224 225 223 220
282 285 288 289 286 286 285 285 285 284 282 280 280 279 277 278 278 278 276 276 277 277 277 273 266 262 258 250 246 247 249 253 255 258 259 257 255 252 251 249 244 239 234 233 233 233 236 234 232 234 235 237 238 239 241 238 230 224 222 227 230 227
285 288 289 290 289 287 285 285 285 283 283 281 281 281 280 280 279 278 276 275 277 275 272 269 263 256 252 251 250 249 249 250 253 255 256 255 254 253 253 251 247 242 238 236 236 236 235 233 232 234 234 235 237 241 245 243 235 226 221 224 230 232
284 287 289 289 288 287 287 286 286 285 283 283 282 282 282 283 282 280 278 277 277 274 267 262 259 253 248 249 247 246 246 247 250 249 251 252 253 254 254 253 251 248 243 240 240 239 238 237 236 235 234 234 235 238 244 245 240 231 225 223 224 229
286 288 288 288 288 289 292 291 289 287 284 285 285 284 285 286 286 284 283 280 277 272 263 257 252 248 244 242 240 241 245 249 250 248 249 249 250 254 255 253 253 253 249 246 245 244 242 241 241 240 237 235 235 237 241 244 243 237 231 228 225 225
288 289 287 286 290 291 294 294 293 290 287 287 288 290 289 289 288 286 286 284 278 269 258 252 246 244 242 240 241 242 244 247 248 248 248 248 247 251 255 255 255 254 251 248 248 249 248 246 244 243 241 236 235 237 240 244 244 240 235 232 228 224
286 290 292 292 293 294 296 296 297 295 292 290 290 292 294 296 295 290 288 285 280 270 256 249 242 239 237 237 240 241 241 243 245 245 246 247 247 251 258 261 259 257 255 249 245 247 249 248 246 245 243 239 236 237 240 243 245 242 238 235 229 225
290 294 296 296 294 295 295 295 297 298 295 294 292 292 295 300 301 296 291 286 281 274 263 254 245 238 232 229 233 236 238 239 241 243 244 245 248 252 259 262 261 260 258 252 245 247 249 247 246 246 245 243 239 239 241 244 247 246 244 241 233 227
296 297 296 296 295 294 295 294 295 297 296 296 296 296 298 302 303 302 298 290 282 275 266 258 251 247 241 233 232 236 239 239 241 245 245 247 251 256 259 262 264 260 255 250 245 248 252 250 249 248 246 246 244 243 243 244 247 247 245 245 239 230
294 296 296 295 296 295 295 294 294 297 296 294 295 297 299 302 302 302 299 291 282 275 265 258 252 251 253 252 246 247 249 250 251 250 251 253 256 262 264 264 263 256 252 252 249 250 254 256 254 251 248 248 248 247 246 246 248 249 246 245 243 236
295 297 298 297 296 294 292 291 292 295 296 295 293 294 297 299 298 297 293 286 280 274 268 265 262 258 261 268 260 255 261 266 268 264 262 263 262 263 264 263 261 257 256 259 257 252 252 254 255 254 252 251 250 249 247 246 247 249 248 247 245 243
302 302 301 300 298 295 291 289 290 293 296 296 294 292 295 296 294 291 288 285 282 276 273 272 273 271 271 276 272 268 270 275 280 277 272 274 272 265 263 264 264 262 262 263 261 255 252 254 257 257 254 252 251 251 250 246 246 248 249 248 245 245
301 299 298 299 301 300 295 291 289 289 292 295 296 295 294 294 291 288 285 284 283 281 280 277 275 275 276 279 281 282 280 280 284 283 280 283 280 272 270 271 268 266 265 265 264 259 257 260 263 262 259 256 253 255 254 250 247 248 249 248 244 244
292 290 292 297 300 301 297 295 293 290 288 288 293 297 298 297 293 290 287 285 284 283 284 281 276 273 274 277 281 284 286 285 285 284 286 287 283 279 280 279 273 269 268 267 266 262 261 263 266 267 266 262 255 253 253 251 249 246 246 246 244 243
283 284 289 293 295 298 298 299 298 295 291 286 286 290 295 298 296 293 290 287 285 283 282 281 279 276 274 275 278 283 286 286 285 284 285 285 283 281 282 282 279 274 271 271 270 265 264 266 268 269 270 264 255 250 249 250 250 248 246 245 244 243
280 283 288 290 292 296 297 298 298 296 294 290 287 285 287 291 293 293 291 289 287 284 282 280 281 280 280 279 280 281 281 283 283 282 282 281 281 280 279 280 279 279 278 276 273 267 267 270 270 269 268 265 259 256 254 253 255 254 249 245 243 241
281 284 287 289 290 293 294 297 298 297 296 294 292 290 289 288 288 290 291 291 290 288 285 282 281 280 280 281 281 280 280 281 282 281 281 279 279 278 277 276 275 276 277 272 266 265 269 272 272 270 269 267 264 263 263 264 267 262 253 249 246 242
282 284 285 288 290 292 294 298 300 300 300 298 297 295 295 292 290 290 291 293 293 292 291 288 285 282 280 279 279 280 281 281 281 281 280 278 277 277 276 276 275 274 274 271 265 266 271 272 271 272 272 271 268 265 266 269 272 268 262 260 254 245
280 282 285 287 290 294 294 297 300 301 301 300 298 296 295 294 293 292 292 293 294 294 294 292 290 287 285 283 282 282 282 281 281 281 279 277 276 275 275 275 275 274 275 274 270 269 271 270 270 272 272 271 270 269 269 269 270 268 268 270 265 253
280 281 285 286 290 295 295 296 295 295 296 297 297 295 294 294 293 292 292 292 292 292 293 292 292 291 291 289 287 286 285 284 284 282 281 279 276 275 274 273 274 274 274 274 273 272 272 269 268 269 269 269 269 269 271 271 269 268 268 268 270 268
280 283 285 286 290 294 295 297 297 296 296 298 298 295 294 293 291 291 291 290 290 290 290 290 291 291 292 292 291 290 289 288 287 284 282 280 277 275 273 272 271 271 271 272 272 273 273 271 268 266 266 266 266 267 269 272 271 269 270 268 266 267
280 284 286 289 292 295 296 298 299 299 298 300 302 300 297 294 291 289 288 289 289 288 288 288 288 289 289 290 290 289 289 289 287 285 282 279 277 274 271 269 268 267 267 268 269 270 271 271 269 267 265 265 265 266 267 269 271 271 271 269 265 264
280 284 287 289 292 295 296 297 299 300 299 300 303 303 301 298 295 290 287 287 286 286 286 285 285 286 286 286 286 286 286 286 285 282 279 277 275 272 268 265 263 262 263 264 265 266 268 268 268 267 267 267 266 265 265 265 267 269 270 270 267 264
281 282 285 288 292 294 295 296 297 298 298 300 303 305 304 302 298 293 288 285 284 284 283 283 283 283 284 284 284 283 282 281 280 278 275 273 271 268 265 262 259 258 258 260 262 264 265 266 267 268 266 267 267 265 263 262 262 262 262 265 265 263
282 283 283 286 291 293 294 295 296 297 299 300 303 305 304 301 298 292 288 283 281 281 281 281 282 281 281 281 281 281 280 279 276 274 272 270 268 265 263 261 259 257 256 256 259 262 264 264 265 266 265 264 265 265 262 261 259 258 258 260 260 260
281 285 284 287 291 293 294 294 294 296 299 301 302 303 301 297 294 290 286 282 280 279 279 279 280 280 279 278 277 277 277 276 275 273 272 270 268 264 261 260 260 260 258 257 259 262 264 265 265 266 266 263 262 262 260 259 258 258 258 260 260 261
275 282 285 287 289 291 293 292 292 293 295 300 300 299 295 290 288 286 283 281 279 279 280 280 280 281 281 279 277 276 275 275 274 273 272 270 269 267 263 261 260 260 260 260 261 264 266 267 267 268 267 264 261 260 258 256 257 258 260 261 262 262
267 276 281 282 286 288 290 289 288 289 292 296 297 293 289 284 281 281 279 278 278 279 281 283 283 283 283 284 282 280 279 277 276 274 272 271 269 269 267 266 264 262 261 261 261 264 267 269 269 268 268 266 264 261 259 257 256 258 260 262 262 262
261 273 275 273 279 282 285 286 283 286 289 291 292 287 281 277 276 276 275 274 275 278 280 282 284 285 285 286 286 285 283 280 278 276 273 271 269 267 266 266 266 266 264 263 263 264 266 269 269 268 267 266 265 264 262 260 259 259 260 261 262 262
250 260 265 267 276 279 281 283 281 282 286 287 285 278 273 272 272 272 272 271 272 275 279 281 282 284 286 286 286 286 285 283 281 279 277 275 273 270 267 265 264 265 265 264 264 264 265 267 268 268 267 265 264 264 264 263 262 262 263 263 263 263
242 250 267 273 274 273 275 278 279 280 283 284 279 270 266 267 269 270 269 270 274 276 278 282 283 284 286 287 286 285 284 283 281 279 279 277 276 275 272 269 266 263 263 262 262 262 263 264 265 266 266 264 262 261 262 263 263 263 264 265 265 264
254 258 273 273 266 267 271 274 278 280 280 280 275 266 263 263 265 268 268 269 275 279 280 282 284 285 286 286 285 284 282 282 280 278 277 275 275 275 275 275 272 269 266 263 261 259 260 261 262 264 265 264 262 259 258 259 260 261 262 264 265 264
268 265 272 274 272 277 279 278 279 277 274 274 270 263 261 262 262 265 268 271 274 279 280 280 280 281 282 283 283 282 281 280 280 278 276 273 272 271 272 273 273 273 271 269 265 262 259 258 258 260 263 264 264 262 259 258 259 261 262 262 263 263
Height
5820 5821 5822 5822 5821 5822 5822 5821 5821 5820 5819 5820 5821 5821 5819 5818 5817 5818 5818 5819 5819 5820 5820 5820 5821 5822 5822 5822 5822 5822 5822 5822 5823 5823 5824 5824 5825 5825 5826 5827 5827 5828 5828 5829 5830 5832 5833 5833 5834 5835 5836 5836 5837 5839 5840 5842 5845 5846 5846 5847 5847 5848
5819 5820 5820 5820 5819 5819 5819 5819 5818 5818 5818 5819 5818 5818 5817 5815 5815 5816 5816 5816 5817 5818 5818 5819 5819 5820 5820 5820 5820 5820 5820 5821 5821 5821 5821 5822 5823 5823 5824 5824 5825 5825 5826 5827 5828 5829 5830 5831 5831 5832 5833 5834 5835 5836 5838 5840 5843 5844 5844 5845 5846 5847
5817 5818 5818 5817 5817 5817 5816 5816 5816 5816 5817 5816 5815 5816 5815 5813 5813 5814 5814 5814 5815 5816 5816 5817 5817 5818 5818 5818 5818 5818 5819 5819 5819 5819 5819 5820 5820 5821 5822 5822 5823 5823 5824 5825 5826 5827 5828 5828 5829 5829 5830 5831 5833 5834 5835 5838 5841 5842 5842 5843 5843 5845
5815 5815 5815 5815 5815 5814 5814 5814 5813 5815 5815 5813 5812 5813 5813 5811 5810 5811 5812 5812 5813 5813 5814 5815 5815 5815 5815 5815 5816 5816 5816 5817 5817 5817 5817 5818 5818 5819 5819 5820 5820 5821 5822 5823 5824 5825 5826 5826 5827 5827 5828 5829 5830 5831 5832 5835 5838 5841 5841 5841 5841 5842
5813 5812 5813 5813 5812 5812 5811 5811 5811 5812 5812 5810 5810 5811 5810 5809 5807 5808 5809 5810 5811 5811 5812 5812 5813 5813 5813 5813 5813 5814 5814 5814 5815 5815 5816 5816 5816 5817 5817 5817 5818 5819 5820 5821 5822 5823 5824 5824 5825 5825 5826 5827 5828 5828 5830 5832 5836 5838 5839 5839 5840 5840
5810 5810 5810 5810 5809 5809 5809 5809 5809 5810 5810 5808 5808 5807 5808 5807 5805 5805 5806 5807 5809 5809 5810 5810 5811 5811 5811 5811 5811 5811 5812 5812 5813 5814 5814 5814 5814 5814 5815 5815 5816 5817 5818 5819 5820 5821 5822 5822 5823 5823 5824 5825 5826 5826 5827 5830 5833 5835 5836 5837 5838 5838
5806 5807 5807 5807 5807 5806 5806 5807 5807 5807 5807 5806 5805 5805 5805 5804 5804 5804 5804 5804 5806 5807 5808 5809 5809 5809 5809 5809 5809 5809 5809 5810 5811 5812 5812 5812 5812 5812 5812 5812 5813 5815 5816 5817 5818 5819 5820 5820 5821 5821 5822 5823 5823 5824 5824 5827 5830 5832 5833 5834 5836 5836
5804 5805 5804 5804 5804 5804 5804 5804 5805 5805 5804 5803 5803 5802 5802 5801 5801 5802 5802 5802 5803 5805 5806 5807 5807 5807 5807 5807 5807 5807 5807 5808 5810 5810 5809 5809 5810 5810 5810 5810 5811 5813 5814 5815 5816 5817 5818 5819 5819 5819 5820 5820 5821 5821 5822 5824 5827 5829 5830 5831 5832 5834
5802 5803 5803 5802 5802 5802 5801 5802 5802 5802 5802 5801 5800 5800 5800 5799 5799 5800 5800 5800 5801 5802 5803 5804 5804 5804 5805 5805 5805 5806 5806 5807 5808 5808 5808 5808 5808 5808 5808 5808 5810 5811 5812 5814 5815 5815 5816 5817 5817 5817 5818 5818 5819 5819 5820 5821 5823 5826 5828 5828 5830 5831
5800 5800 5800 5800 5800 5800 5799 5799 5800 5800 5800 5799 5798 5797 5797 5797 5797 5798 5798 5798 5799 5800 5801 5801 5801 5802 5802 5803 5803 5804 5804 5805 5805 5806 5806 5806 5806 5805 5805 5806 5807 5808 5810 5811 5813 5814 5814 5815 5815 5814 5815 5816 5817 5817 5817 5818 5820 5823 5824 5825 5827 5828
5797 5797 5797 5797 5798 5797 5797 5797 5797 5797 5798 5797 5796 5795 5795 5795 5795 5795 5796 5796 5797 5798 5799 5799 5799 5799 5799 5800 5801 5802 5803 5803 5804 5804 5805 5805 5805 5804 5805 5805 5806 5806 5807 5808 5810 5810 5811 5812 5812 5812 5813 5814 5814 5815 5815 5816 5817 5820 5821 5822 5823 5825
5795 5795 5794 5795 5795 5795 5795 5795 5795 5795 5795 5795 5794 5794 5794 5793 5793 5793 5794 5794 5795 5796 5796 5797 5796 5796 5795 5796 5798 5799 5801 5802 5802 5802 5803 5803 5803 5804 5804 5805 5805 5805 5805 5806 5807 5807 5808 5809 5810 5811 5811 5811 5812 5812 5813 5814 5815 5817 5819 5819 5820 5821
5793 5793 5793 5793 5793 5793 5793 5793 5793 5793 5793 5793 5792 5792 5791 5791 5791 5791 5792 5792 5793 5793 5794 5794 5794 5794 5793 5793 5794 5797 5799 5800 5801 5801 5801 5802 5802 5802 5803 5803 5803 5803 5804 5804 5805 5805 5806 5808 5808 5809 5809 5809 5809 5810 5811 5811 5812 5815 5816 5816 5817 5818
5792 5792 5792 5792 5792 5791 5790 5790 5791 5790 5790 5791 5790 5790 5789 5789 5789 5789 5790 5790 5790 5791 5791 5791 5792 5793 5793 5794 5795 5797 5798 5799 5800 5800 5800 5800 5800 5801 5801 5801 5801 5802 5802 5802 5803 5804 5805 5806 5807 5807 5807 5807 5807 5808 5808 5810 5810 5812 5814 5814 5814 5816
5790 5790 5789 5790 5790 5789 5788 5788 5789 5788 5788 5789 5789 5788 5787 5787 5787 5788 5788 5788 5788 5789 5789 5789 5790 5791 5792 5794 5796 5797 5797 5798 5798 5798 5798 5798 5798 5799 5799 5799 5799 5800 5801 5801 5802 5802 5803 5803 5804 5805 5806 5805 5805 5805 5806 5808 5808 5809 5811 5812 5812 5813
5787 5786 5785 5786 5786 5786 5786 5786 5787 5786 5786 5786 5786 5786 5786 5786 5786 5786 5786 5786 5786 5787 5787 5788 5788 5789 5791 5792 5794 5795 5796 5796 5797 5797 5797 5796 5797 5797 5797 5797 5798 5798 5798 5798 5799 5799 5800 5800 5801 5802 5804 5804 5803 5802 5803 5805 5806 5806 5807 5809 5810 5810
5784 5784 5783 5782 5783 5783 5784 5784 5784 5784 5784 5784 5784 5784 5784 5784 5784 5784 5784 5784 5785 5785 5786 5787 5787 5787 5788 5790 5791 5792 5794 5794 5795 5795 5795 5795 5795 5795 5795 5796 5796 5795 5794 5795 5795 5796 5797 5798 5798 5799 5801 5801 5801 5800 5801 5802 5802 5802 5803 5805 5807 5807
5782 5782 5781 5781 5781 5781 5782 5782 5782 5782 5782 5783 5783 5782 5782 5781 5782 5782 5782 5782 5783 5783 5784 5785 5785 5785 5786 5787 5788 5789 5790 5791 5792 5793 5793 5793 5793 5793 5793 5793 5793 5792 5791 5792 5792 5793 5795 5796 5796 5796 5797 5798 5798 5798 5798 5798 5798 5799 5800 5801 5803 5804
5780 5780 5780 5781 5781 5781 5780 5780 5779 5779 5779 5780 5781 5781 5780 5779 5779 5780 5780 5780 5780 5781 5781 5781 5782 5783 5784 5785 5786 5787 5787 5788 5789 5790 5790 5790 5790 5791 5791 5791 5791 5790 5789 5790 5791 5792 5793 5794 5794 5794 5794 5795 5795 5795 5795 5795 5795 5796 5797 5798 5799 5800
5778 5779 5779 5779 5780 5779 5779 5779 5778 5777 5777 5777 5778 5778 5779 5778 5778 5778 5778 5778 5778 5778 5778 5779 5779 5780 5781 5782 5783 5784 5785 5785 5786 5787 5788 5788 5789 5789 5789 5789 5789 5788 5788 5789 5790 5790 5791 5791 5791 5792 5793 5793 5793 5792 5792 5792 5793 5793 5794 5795 5796 5796
5776 5777 5777 5777 5778 5778 5778 5777 5777 5776 5775 5775 5775 5775 5776 5776 5776 5776 5775 5775 5775 5776 5776 5776 5777 5777 5778 5779 5780 5781 5782 5783 5783 5784 5785 5785 5786 5786 5786 5787 5787 5786 5786 5787 5787 5788 5789 5789 5789 5789 5790 5790 5790 5790 5790 5790 5791 5791 5792 5792 5793 5793
5775 5775 5775 5775 5776 5776 5776 5776 5775 5774 5773 5773 5773 5773 5773 5773 5773 5773 5773 5773 5773 5773 5773 5773 5773 5774 5775 5776 5777 5777 5778 5779 5780 5781 5782 5782 5782 5783 5783 5784 5783 5783 5783 5784 5784 5785 5786 5786 5786 5786 5787 5787 5787 5787 5787 5788 5789 5789 5790 5790 5790 5790
5772 5773 5773 5773 5774 5774 5774 5774 5774 5773 5772 5772 5771 5771 5771 5771 5771 5771 5771 5771 5770 5770 5771 5770 5770 5771 5771 5772 5773 5774 5774 5775 5777 5777 5778 5779 5779 5779 5780 5780 5780 5780 5780 5780 5781 5782 5782 5783 5783 5784 5784 5784 5784 5784 5785 5786 5787 5787 5788 5788 5788 5788
5770 5771 5771 5771 5772 5772 5772 5772 5772 5772 5771 5771 5770 5769 5769 5769 5769 5769 5769 5769 5768 5768 5768 5768 5768 5768 5768 5769 5769 5770 5771 5772 5773 5774 5774 5775 5776 5776 5776 5776 5777 5777 5777 5777 5778 5779 5780 5780 5781 5782 5782 5782 5782 5782 5782 5783 5784 5784 5785 5785 5786 5786
5768 5769 5768 5769 5770 5770 5770 5770 5770 5769 5769 5768 5768 5768 5767 5767 5767 5767 5767 5767 5767 5767 5767 5766 5766 5766 5766 5766 5766 5767 5767 5768 5769 5770 5771 5772 5773 5773 5774 5774 5774 5774 5774 5775 5775 5776 5777 5778 5778 5779 5779 5780 5780 5780 5780 5781 5781 5782 5782 5783 5783 5784
5767 5767 5766 5767 5767 5768 5768 5768 5768 5767 5767 5766 5766 5766 5765 5765 5765 5765 5765 5765 5764 5764 5765 5765 5764 5764 5765 5765 5764 5764 5765 5765 5766 5767 5768 5769 5770 5771 5771 5772 5772 5772 5772 5773 5773 5773 5774 5775 5775 5775 5776 5777 5777 5778 5778 5779 5779 5779 5780 5780 5781 5781
5765 5765 5765 5765 5765 5765 5766 5766 5766 5765 5765 5764 5764 5764 5763 5763 5763 5763 5763 5763 5763 5762 5763 5763 5763 5762 5763 5763 5763 5763 5763 5763 5764 5764 5765 5766 5767 5768 5769 5769 5770 5770 5770 5770 5771 5771 5771 5772 5772 5772 5773 5773 5774 5775 5776 5777 5777 5777 5777 5777 5778 5778
5763 5763 5763 5762 5763 5763 5764 5764 5764 5764 5763 5763 5762 5762 5762 5762 5762 5762 5761 5761 5761 5761 5761 5761 5761 5761 5761 5761 5761 5761 5761 5761 5762 5762 5763 5763 5764 5765 5766 5767 5767 5767 5768 5768 5768 5768 5769 5769 5769 5770 5770 5771 5771 5772 5773 5774 5774 5775 5775 5775 5776 5776
5761 5761 5761 5760 5760 5760 5761 5762 5762 5762 5762 5761 5761 5760 5760 5760 5760 5760 5760 5759 5759 5759 5759 5759 5759 5759 5759 5759 5759 5759 5759 5759 5760 5760 5761 5761 5762 5762 5763 5764 5764 5765 5765 5766 5766 5766 5766 5766 5767 5767 5768 5768 5768 5769 5769 5770 5771 5772 5772 5773 5774 5774
5759 5759 5758 5758 5757 5758 5758 5759 5760 5760 5760 5759 5759 5759 5758 5758 5758 5758 5758 5758 5757 5757 5757 5757 5757 5757 5757 5757 5757 5757 5757 5758 5758 5758 5759 5759 5759 5760 5760 5761 5761 5762 5762 5763 5763 5763 5764 5764 5764 5765 5765 5766 5766 5766 5767 5767 5767 5768 5769 5770 5770 5771
5757 5756 5755 5754 5754 5754 5755 5756 5757 5758 5758 5757 5757 5756 5756 5756 5756 5756 5756 5756 5756 5755 5755 5755 5756 5756 5755 5756 5756 5756 5756 5756 5756 5756 5756 5757 5757 5758 5758 5758 5759 5759 5760 5760 5761 5761 5761 5761 5762 5762 5763 5763 5764 5764 5764 5765 5765 5765 5765 5766 5766 5767
5754 5753 5752 5751 5751 5751 5751 5752 5753 5754 5755 5755 5754 5754 5754 5754 5754 5754 5754 5754 5754 5754 5753 5753 5754 5754 5754 5754 5754 5754 5754 5754 5754 5754 5754 5754 5755 5755 5755 5756 5756 5756 5757 5757 5758 5758 5758 5759 5759 5760 5760 5761 5761 5762 5762 5762 5762 5762 5762 5762 5762 5764
5751 5750 5749 5748 5748 5747 5747 5748 5749 5750 5751 5752 5752 5752 5752 5752 5752 5752 5752 5752 5752 5752 5752 5752 5752 5752 5752 5752 5752 5752 5752 5752 5752 5752 5752 5752 5752 5753 5753 5753 5753 5754 5754 5754 5755 5755 5755 5756 5756 5757 5758 5758 5758 5759 5759 5760 5760 5759 5759 5759 5759 5760
5745 5745 5745 5745 5745 5744 5744 5744 5745 5746 5748 5749 5749 5749 5749 5749 5750 5750 5750 5750 5750 5750 5750 5750 5750 5750 5750 5751 5750 5750 5750 5750 5750 5750 5749 5750 5750 5750 5750 5751 5751 5751 5751 5751 5752 5752 5752 5753 5753 5754 5755 5755 5756 5756 5756 5757 5757 5757 5757 5757 5757 5757
5741 5741 5741 5739 5738 5739 5739 5740 5741 5743 5745 5746 5747 5747 5747 5747 5747 5747 5748 5747 5747 5748 5748 5748 5748 5748 5749 5749 5749 5748 5748 5748 5748 5748 5747 5747 5748 5748 5748 5748 5748 5749 5749 5749 5749 5749 5750 5750 5750 5751 5751 5752 5753 5753 5754 5754 5754 5754 5754 5755 5755 5755
5741 5740 5736 5732 5731 5733 5736 5737 5739 5741 5742 5743 5744 5744 5745 5745 5745 5745 5745 5745 5745 5745 5745 5746 5746 5746 5746 5746 5746 5746 5746 5746 5746 5746 5746 5746 5746 5746 5746 5746 5746 5746 5746 5747 5747 5747 5747 5747 5748 5748 5749 5749 5750 5751 5751 5752 5752 5752 5752 5753 5753 5753
5738 5736 5734 5733 5732 5732 5735 5736 5736 5738 5740 5740 5741 5742 5742 5743 5743 5743 5743 5743 5743 5743 5743 5743 5744 5744 5744 5744 5744 5744 5744 5744 5744 5744 5744 5744 5744 5744 5744 5744 5744 5744 5744 5744 5745 5745 5745 5745 5745 5746 5746 5747 5747 5748 5749 5749 5750 5750 5750 5751 5751 5751